www.pogodaiklimat.ru

Погода и климат >> Архив погоды >> Россия >> Якутия >> Усть-Нера


ПОГОДА в Усть-Нере

  • Прогноз погоды в Усть-Нере
  • Монитор погоды в Усть-Нере

АРХИВ ПОГОДЫ в Усть-Нере

Время (UTC), дата Ветер
(напр.,м/с)
 
Видим.   Явления Облачность Т
(С)
Тd
(С)
f
(%)
Тe
(С)
Тes
(С)
Комфортность P
(гПа)
Po
(гПа)
Тmin
(С)
Tmax
(С)
R
(мм)
R24
(мм)
S
(см)
09 12.03 З 2 20 км 6/1 1500 м
[Sc Ci fib]
-23.2 -28.8 60 -30 -30 1025.6 955.6 -18.0
12 12.03 штиль 0 20 км 6/0
[Ci fib]
-28.8 -32.1 73
15 12.03 штиль 0 20 км 4/0
[Ci fib]
-34.6 -37.4 76 -35 -35 опасность
обморожения
1030.3 956.8
18 12.03 В 1 20 км 4/0
[Ci fib]
-36.6 -40.1 70 -41 -41 опасность
обморожения
1031.0 956.9
21 12.03 З 1 20 км 8/1 1500 м
[Sc Ci fib]
-38.3 -41.6 71 -43 -43 опасность
обморожения
1031.7 956.9 -38.7 23
00 13.03 штиль 0 50 км 8/1 1500 м
[Sc Ci fib]
-31.5 -35.2 70 -32 -29 опасность
обморожения
1029.4 956.8 -39.0
03 13.03 штиль 0 50 км 6/1 1500 м
[Sc Ci fib]
-23.4 -29.1 59 -23 -20 1025.2 955.2
06 13.03 штиль 0 50 км 6/1 1500 м
[Sc Ci fib]
-20.1 -25.9 60 -20 -19 1022.6 953.6
09 13.03 штиль 0 50 км 10/0
[Cs]
-28.7 -32.6 69 -29 -29 1024.7 953.4 -20.0
12 13.03 штиль 0 10 км слаб. снег 10/0
[As trans Cs]
-32.6 -36.2 70 -33 -33 опасность
обморожения
1026.6 954.0
15 13.03 штиль 0 10 км слаб. снег 10/0
[As trans]
-33.7 -36.6 75 -34 -34 опасность
обморожения
1026.6 953.6
18 13.03 штиль 0 10 км слаб. снег 10/0
[As trans]
-36.5 -39.4 74 -37 -37 опасность
обморожения
1027.4 953.5
21 13.03 штиль 0 20 км слаб. снег 10/4 1000 м
[Sc As trans Cs]
-37.8 -41.2 70 -38 -38 опасность
обморожения
1027.7 953.4 -38.0 0.4 23
00 14.03 штиль 0 20 км слаб. снег 9/3 1500 м
[Sc Cs]
-33.2 -37.0 69 -33 -31 опасность
обморожения
1026.1 953.4
03 14.03 штиль 0 20 км {снег} 10/3 1500 м
[Sc Cs]
-25.7 -31.2 60 -26 -23 1022.1 951.7
06 14.03 штиль 0 20 км {снег} 9/1 1500 м
[Sc Ci fib]
-22.7 -28.4 60 -23 -22 1019.7 950.3
09 14.03 штиль 0 50 км 9/0
[Cs]
-28.6 -32.4 70 -29 -29 1021.1 950.0 -22.4 0.2
12 14.03 штиль 0 20 км слаб. снег 10/0
[Ac trans Cs]
-32.2 -35.9 69 -32 -32 опасность
обморожения
1022.1 949.9
15 14.03 В 2 20 км слаб. снег 10/0
[Ac trans Cs]
-34.0 -37.5 70 -42 -42 опасность
обморожения
1022.3 949.5
18 14.03 В 1 20 км слаб. снег 10/0
[Cs]
-35.3 -39.0 69 -40 -40 опасность
обморожения
1022.5 949.3
21 14.03 штиль 0 20 км слаб. снег 10/0
[Cs]
-35.5 -39.0 70 -36 -36 опасность
обморожения
1022.5 949.3 -35.8 0.3 24
00 15.03 СВ 3 20 км слаб. снег 10/0
[Cs]
-31.0 -34.8 69 -41 -39 опасность
обморожения
1020.7 948.9
03 15.03 СВ 2 20 км слаб. снег 10/0
[Cs]
-24.9 -28.9 69 -32 -29 опасность
обморожения
1017.7 947.8
06 15.03 СВ 2 20 км слаб. снег 10/0
[Cs]
-21.3 -25.3 70 -27 -26 1015.9 947.0
09 15.03 С 1 20 км слаб. снег 10/0
[As trans Cs]
-23.6 -27.6 70 -27 -27 1016.6 947.2 -21.1 0.2
12 15.03 С 1 10 км слаб. снег 10/0
[As trans Cs]
-26.2 -29.4 74 -30 -30 1017.9 947.7
15 15.03 С 2 10 км слаб. снег 10/0
[As trans Cs]
-26.8 -30.0 74 -34 -34 опасность
обморожения
1018.4 947.9
18 15.03 штиль 0 10 км слаб. снег 10/0
[As trans Cs]
-30.4 -33.4 75 -30 -30 1019.7 948.1
21 15.03 штиль 0 20 км слаб. снег 10/0
[As trans Cs]
-33.9 -36.8 75 -34 -34 опасность
обморожения
1021.8 949.1 -34.2 0.4 24
00 16.03 штиль 0 20 км слаб. снег 10/0
[Cs]
-26.8 -31.5 64 -27 -24 1020.0 949.4
03 16.03 В 2 20 км слаб. снег 10/0
[Cs]
-20.3 -26.1 60 -26 -23 1017.0 948.3
06 16.03 СВ 3 50 км {снег} 6/0
[Ci fib]
-17.4 -24.3 55 -24 -23 1015.5 947.7
09 16.03 С 2 50 км 4/0
[Ci fib]
-24.9 -29.7 64 -32 -32 опасность
обморожения
1018.3 948.4 -17.2 0.0
12 16.03 СВ 1 20 км ясно -33.7 -37.2 71 -38 -38 опасность
обморожения
1022.0 949.4
15 16.03 штиль 0 20 км ясно -38.0 -41.6 69 -38 -38 опасность
обморожения
1024.1 950.0
18 16.03 штиль 0 20 км ясно -40.1 -43.4 70 -40 -40 опасность
обморожения
1024.9 950.2
21 16.03 штиль 0 50 км ясно -42.5 -45.6 71 -43 -42 опасность
обморожения
1026.4 950.7 -42.7 24
00 17.03 З 1 50 км 3/0
[Ci fib]
-32.4 -36.9 64 -37 -34 опасность
обморожения
1022.9 950.5
03 17.03 штиль 0 50 км 9/0
[Ci fib]
-24.9 -30.5 60 -25 -21 1018.9 948.9
06 17.03 СВ 1 50 км 6/0
[Ci fib]
-21.2 -27.9 55 -24 -23 1016.7 947.9
09 17.03 З 2 50 км 4/0
[Ci fib]
-29.2 -33.7 65 -37 -37 опасность
обморожения
1019.3 948.2 -20.6
12 17.03 штиль 0 20 км 3/0
[Ci fib]
-35.0 -38.7 69 -35 -35 опасность
обморожения
1021.9 948.9
15 17.03 З 2 20 км 3/0
[Ci fib]
-38.3 -41.6 71 -47 -47 опасность
обморожения
949.5
18 17.03 штиль 0 20 км 3/0
[Ci fib]
-40.2 -43.4 71 -40 -40 опасность
обморожения
1024.7 950.0
21 17.03 штиль 0 50 км 9/0
[Cs]
-40.0 -43.1 72 -40 -40 опасность
обморожения
1025.4 950.6 -41.3 24
00 18.03 З 2 50 км 9/0
[Ci fib]
-31.6 -36.0 65 -39 -37 опасность
обморожения
1023.2 951.1
03 18.03 В 1 50 км 9/0
[Ci fib]
-24.3 -29.9 60 -28 -24 1020.1 950.2
06 18.03 В 1 50 км 4/0
[Ci fib]
-19.9 -28.8 45 -23 -21 1018.3 949.6
09 18.03 штиль 0 50 км 3/0
[Ci fib]
-27.8 -33.3 59 -28 -28 1021.5 950.5 -19.8
12 18.03 З 1 20 км ясно -35.8 -39.4 69 -41 -41 опасность
обморожения
1025.4 951.8
15 18.03 штиль 0 20 км ясно -39.2 -42.5 71 -39 -39 опасность
обморожения
1027.5 952.9
18 18.03 штиль 0 20 км ясно -41.5 -45.0 69 -42 -42 опасность
обморожения
1029.6 954.0
21 18.03 штиль 0 50 км 3/0
[Ci fib]
-43.1 -46.2 71 -43 -43 опасность
обморожения
1031.1 955.0 -43.4 24
00 19.03 штиль 0 50 км 3/0
[Ci fib]
-33.1 -36.7 70 -33 -29 опасность
обморожения
1029.0 956.0
03 19.03 штиль 0 50 км 3/0
[Ci fib]
-24.4 -30.0 60 -24 -19 1025.3 955.0
06 19.03 штиль 0 50 км 3/0
[Ci fib]
-20.0 -27.8 50 -20 -18 1023.0 954.2

 

Местоположение метеостанции Усть-Нера (Якутия, Россия): широта 64.53 долгота 143.10 высота над уровнем моря 519 м.

В архиве по умолчанию представлена погода в Усть-Нере за последнюю неделю. Архивные данные за месяц целиком и за предыдущие месяцы, начиная с января 2011 года, Вы можете получить, выбрав интересующий диапазон дат из раскрывающегося списка и нажав кнопку "Ввод!".


*Определитесь, кто Вы:
робот инопланетянин человек

Внимание! Время в таблицах - всемирное. Для получения местного времени необходимо прибавить поправку, которая равна 10 ч.

Смотрите также архив погоды в соседних городах и на ближайших метеорологических станциях:

Погода в Юртах (Якутия, Россия) (82 км)
Погода в Оймяконе (Якутия, Россия) (142 км)
Погода в Делянкире (Якутия, Россия) (144 км)
Погода в Агаякане (Якутия, Россия) (150 км)
Погода в Усть-Моме (Якутия, Россия) (214 км)
Погода в Восточной (Якутия, Россия) (224 км)
Погода в Сусумане (Магаданская область, Россия) (314 км)
Погода в Иэме (Якутия, Россия) (355 км)
Погода в Томпо (Якутия, Россия) (359 км)
Погода в Теплом Ключе (Якутия, Россия) (367 км)

Пояснения к столбцам:

Ветер - указаны скорость ветра в м/с - средняя за 10 мин, порывы в срок и между сроками (в фигурных скобках) и направление, откуда дует ветер: С - северный, СВ - северо-восточный, В - восточный, ЮВ - юго-восточный, Ю - южный, ЮЗ - юго-западный, З - западный, СЗ - северо-западный.
Видимость - горизонтальная дальность видимости в метрах или километрах. При видимости от 1 до 10 км при отсутствии осадков обычно наблюдается дымка, при ухудшении видимости до 1 км и менее - туман. В сухую погоду видимость может ухудшаться дымом, пылью или мглою.
Явления - указаны атмосферные явления, наблюдавшиеся в срок или в последний час перед сроком; фигурными скобками обозначены явления, наблюдавшиеся между сроками (за 1-3 часа до срока); квадратными скобками обозначены град или гололедные отложения с указанием их диаметра в мм.
Облачность - указаны через наклонную черту общая и нижняя облачность в баллах и высота нижней границы облаков в метрах; квадратными скобками обозначены формы облаков: Ci - перистые, Cs - перисто-слоистые, Cc - перисто-кучевые, Ac - высококучевые, As - высокослоистые, Sc - слоисто-кучевые, Ns - слоисто-дождевые, Cu - кучевые, Cb - кучево-дождевые. Подробнее классификацию облаков см. в Атласе облаков (PDF).
T - Температура воздуха - температура, измеренная на высоте 2 м над землей.
Td - Температура точки росы - температура, при понижении до которой содержащийся в воздухе водяной пар достигнет насыщения.
f - Относительная влажность воздуха - влажноcть воздуха, измеренная на высоте 2 м над землей.
Te - Эффективная температура - температура, которую ощущает одетый по сезону человек в тени. Характеристика душности погоды. При расчете учитывается влияние влажности воздуха и скорости ветра на теплоощущения человека.
Tes - Эффективная температура на солнце - температура, которую ощущает человек, с поправкой на солнечный нагрев. Характеристика знойности погоды. Зависит от высоты солнца над горизонтом, облачности и скорости ветра. Ночью, в пасмурную погоду, а также при ветре 12 м/с и более поправка равна нулю.
P - Атмосферное давление - приведенное к уровню моря атмосферное давление.
Po - Атмосферное давление - измеренное на уровне метеостанции атмосферное давление.
Tmin - Минимальная температура - минимум температуры воздуха на высоте 2 м над землей.
Tmax - Максимальная температура - максимум температуры воздуха на высоте 2 м над землей.
R - Количество осадков - Количество выпавших осадков за период времени, мм. При наведении курсора мыши на число - период времени, за который выпало указанное количество осадков.
R24 - Количество осадков - Количество выпавших осадков за 24 часа, мм.
S - Снежный покров - Высота снежного покрова, см. При наведении курсора мыши на число - состояние снежного покрова и степень покрытия местности в баллах.